CAPE
4 0 4 5 6 1 0 0 0 0 1 4 4 0 0 0 0 1 19 8 2 16 10 31 38 34 37 53 17 21 20 30 21 12 7 11 10 24 23 22 26 32 54 42 64 72 27 73 15 0 0 1 2 0
6 5 0 0 0 0 0 0 0 0 0 0 0 0 0 0 0 0 6 14 8 6 4 2 0 0 0 1 1 0 5 22 1 9 42 15 46 50 11 16 36 56 88 28 26 60 24 32 27 27 13 0 14 20
7 0 0 0 0 0 0 0 0 0 0 0 3 0 0 0 0 0 5 19 19 18 1 0 0 0 0 0 0 0 0 9 18 29 11 3 6 13 13 76 56 54 99 47 13 4 1 0 0 12 19 14 21 8
0 0 0 0 0 0 0 0 0 0 0 0 0 0 0 0 5 3 12 21 13 10 10 0 0 0 0 0 0 0 0 1 2 29 16 1 7 6 18 9 57 94 31 21 22 32 27 30 10 0 0 1 0 0
9 8 3 0 0 0 0 0 0 0 0 0 0 0 0 0 0 2 18 16 15 11 9 6 2 0 0 0 0 7 0 1 2 9 12 8 18 1 5 14 6 18 18 26 34 83 58 29 0 0 0 0 0 0
0 2 2 5 3 1 5 4 2 1 0 0 0 0 0 0 0 8 13 1 1 10 13 7 0 0 0 0 0 2 3 7 21 32 19 14 18 13 17 0 0 144 63 1 17 35 51 22 0 0 0 0 0 0
5 4 3 0 1 7 6 0 10 9 0 0 0 0 0 0 2 11 8 32 2 20 8 7 13 0 1 34 9 3 0 6 17 23 11 7 13 38 19 4 0 0 0 0 3 12 9 18 0 0 0 0 0 0
4 7 2 2 0 2 6 6 1 2 5 17 0 0 7 7 5 5 15 4 29 21 10 5 7 0 0 0 20 70 6 9 9 12 3 10 10 10 20 8 0 0 0 0 0 0 0 0 0 0 2 3 0 2
19 15 8 14 8 5 6 19 12 1 1 5 25 13 7 14 8 6 4 0 27 29 6 9 1 1 19 16 34 22 5 1 2 0 6 41 28 59 5 34 3 0 1 1 0 0 0 0 1 4 26 31 21 22
4 3 2 1 2 1 2 1 1 2 26 33 33 15 0 6 0 0 1 13 16 11 10 4 0 3 10 25 12 10 0 1 32 10 10 3 0 0 10 2 4 8 16 18 8 0 1 5 5 9 16 15 20 15
0 0 0 1 17 10 3 0 7 24 5 15 8 0 24 0 12 15 6 3 7 7 5 0 0 0 0 0 2 0 14 7 5 50 6 6 19 3 3 10 15 8 0 0 0 8 10 11 7 13 13 11 2 2
0 0 0 0 1 6 11 30 5 7 13 12 17 24 40 21 32 3 2 13 9 2 11 1 3 0 1 5 0 0 2 4 0 51 25 0 5 31 30 34 0 0 1 1 0 1 1 1 0 0 0 0 0 0
0 0 5 9 0 0 0 1 0 19 0 29 39 2 1 0 0 0 0 0 1 9 26 24 29 11 22 10 12 16 4 4 3 3 0 0 19 10 1 1 1 2 2 2 2 2 2 3 0 0 0 0 0 0
0 0 0 0 0 0 0 0 8 17 11 10 1 0 1 0 0 0 0 1 8 1 11 1 8 10 14 16 20 0 7 1 0 0 0 0 30 0 0 1 2 3 1 2 2 1 0 0 0 2 2 1 2 1
0 0 13 15 1 0 0 0 0 8 20 6 5 0 0 1 12 2 1 11 26 10 4 0 1 4 6 1 2 2 0 0 1 0 3 95 0 1 2 2 2 2 1 2 2 1 1 2 2 2 2 2 0 0
0 3 0 0 0 1 0 2 9 17 6 0 5 2 4 0 1 0 1 2 12 2 8 14 5 3 2 2 4 0 0 0 1 13 85 1 1 0 0 0 1 2 2 3 1 2 1 1 2 2 2 2 1 1
0 0 0 0 0 4 3 12 4 1 1 10 4 0 0 0 0 0 1 2 23 8 2 16 2 2 7 20 8 4 1 2 33 83 1 1 0 0 0 2 1 1 1 3 2 2 3 1 0 2 1 3 0 1
11 16 0 0 0 11 15 9 10 0 2 2 1 0 1 0 1 1 2 8 8 6 8 17 39 10 6 0 0 15 11 1 2 1 0 0 0 0 0 2 1 0 0 1 2 1 1 1 2 2 0 1 1 1
2 1 10 0 15 3 0 0 0 3 7 2 1 0 0 1 2 3 0 3 16 1 0 0 2 2 6 13 1 2 2 1 3 1 0 0 1 1 1 0 0 0 1 1 1 1 1 0 1 1 0 1 2 1
6 6 5 9 0 0 2 0 0 1 5 17 1 2 3 0 1 2 2 1 3 0 0 1 5 1 3 1 1 1 1 1 3 4 2 1 2 1 0 1 3 1 1 0 0 0 2 3 1 0 0 0 2 1
0 2 3 3 2 2 0 6 6 6 9 6 7 3 5 0 1 2 3 3 0 3 7 2 2 2 1 2 2 3 3 7 1 0 0 2 1 1 0 0 1 2 2 2 1 1 0 2 2 3 1 2 0 0
9 0 6 2 15 17 4 6 3 6 4 4 8 9 9 5 2 5 1 1 1 2 2 2 1 2 2 1 3 2 0 0 0 1 0 0 0 1 1 1 2 2 3 2 2 2 0 0 2 1 0 2 1 0
0 0 17 8 0 0 0 0 6 8 3 3 4 6 13 16 6 0 0 0 1 2 2 3 2 3 3 2 2 1 1 0 3 2 1 1 1 1 0 1 1 1 1 1 0 0 0 0 0 1 1 1 1 1
0 0 0 0 0 0 0 1 5 5 3 1 0 0 2 3 2 5 2 0 1 2 2 1 2 2 7 3 1 1 1 2 2 1 1 1 2 2 1 1 1 0 0 0 1 1 0 0 0 1 1 1 1 1
0 0 0 0 0 0 0 0 1 6 1 1 2 0 2 2 0 1 0 1 3 1 1 2 2 2 2 3 5 2 1 1 2 1 1 1 1 1 1 1 0 0 0 0 2 1 1 0 0 0 0 0 0 0
0 0 0 0 0 0 0 0 0 1 0 1 3 2 7 0 1 1 0 1 2 1 1 1 1 1 3 2 1 0 1 1 0 1 1 1 1 2 1 1 1 1 0 0 1 1 0 0 0 0 0 0 0 0
0 0 0 0 0 0 0 0 0 0 0 2 4 4 5 3 6 1 1 1 1 1 1 2 1 1 2 2 1 0 0 0 1 1 1 1 1 0 0 1 0 1 0 0 0 0 0 0 0 0 0 0 0 0
0 0 0 0 0 0 0 0 0 1 4 4 3 4 5 1 0 0 0 1 0 0 0 1 0 0 0 0 0 1 1 0 0 0 0 0 0 1 0 1 0 0 0 0 0 0 0 0 0 0 0 0 0 0
0 0 0 0 0 0 0 1 1 5 1 2 2 0 2 0 1 1 1 0 0 1 4 3 6 1 2 1 0 0 0 0 0 0 0 0 1 1 0 0 0 0 0 0 0 0 0 0 0 0 0 0 0 0
0 0 0 0 0 0 1 0 1 0 0 0 0 0 0 0 0 0 0 1 1 1 1 2 2 2 2 2 2 0 0 0 0 0 0 1 1 0 0 0 0 1 2 0 0 0 0 0 0 0 0 0 0 0
0 0 0 0 0 1 0 0 0 0 1 1 2 1 2 0 1 0 0 0 0 3 3 4 4 0 0 0 0 1 0 0 0 0 0 1 1 0 0 0 1 1 1 0 0 0 0 0 0 0 0 0 0 0
0 0 0 0 0 0 0 0 0 0 2 2 2 0 1 1 2 0 0 0 1 2 0 1 2 0 0 0 0 0 0 0 0 0 0 1 0 0 0 0 0 0 0 0 0 0 0 0 0 0 0 0 0 0
0 0 0 0 0 0 1 0 0 1 2 2 2 0 0 0 0 0 0 0 0 0 1 0 0 0 0 0 0 0 0 0 0 0 0 0 0 0 0 0 0 0 0 0 0 0 0 0 0 0 0 0 0 0
CIN
-3 -0 -2 -2 -2 -1 -0 -0 -0 -0 -12 -6 -5 -1 -0 -0 -0 -3 -4 -57 -1 -30 -17 -10 -17 -11 -2 -2 -8 -6 -4 -2 -5 -5 -2 -2 -3 -4 -5 -4 -6 -6 -15 -4 -6 -3 -3 -11 -21 -7 -0 -10 -1 -1
-2 -2 -0 -0 -0 -0 -0 -0 -0 -0 -0 -0 -0 -0 -0 -0 -0 -0 -1 -6 -0 -1 -2 -2 -0 -0 -4 -2 -1 -1 -2 -3 -5 -6 -3 -16 -1 -5 -3 -4 -9 -9 -7 -5 -17 -5 -18 -7 -5 -7 -4 -0 -4 -3
-2 -0 -0 -0 -0 -0 -0 -0 -0 -0 -0 -0 -2 -0 -0 -0 -0 -0 -2 -0 -1 -0 -1 -0 -0 -0 -0 -0 -0 -0 -0 -7 -2 -2 -0 -1 -0 -3 -2 -2 -4 -5 -5 -2 -6 -15 -15 -0 -0 -3 -6 -4 -4 -4
-1 -1 -0 -0 -0 -0 -0 -0 -0 -0 -0 -0 -0 -0 -0 -0 -0 -7 -3 -1 -1 -1 -0 -0 -0 -0 -0 -0 -0 -0 -0 -0 -3 -1 -0 -0 -0 -2 -1 -1 -1 -4 -9 -26 -3 -5 -4 -3 -4 -0 -0 -2 -0 -0
-1 -2 -3 -2 -0 -0 -0 -0 -0 -0 -0 -0 -0 -0 -0 -0 -0 -2 -2 -1 -1 -1 -1 -1 -1 -0 -0 -0 -0 -1 -0 -1 -2 -0 -0 -0 -1 -2 -2 -2 -2 -10 -5 -1 -5 -3 -5 -3 -1 -0 -0 -0 -0 -0
-0 -0 -0 -1 -0 -0 -0 -1 -2 -5 -0 -0 -0 -0 -0 -0 -0 -1 -0 -1 -1 -1 -1 -1 -0 -0 -0 -0 -0 -2 -4 -2 -2 -0 -0 -0 -1 -0 -0 -0 -0 -3 -4 -0 -8 -3 -5 -12 -0 -0 -0 -0 -0 -0
-0 -0 -0 -1 -1 -0 -0 -1 -0 -1 -0 -0 -0 -0 -0 -0 -1 -1 -1 -1 -2 -1 -1 -1 -2 -0 -2 -6 -2 -2 -0 -1 -2 -0 -0 -0 -2 -3 -0 -0 -0 -15 -0 -0 -6 -7 -5 -5 -0 -0 -0 -0 -0 -0
-2 -2 -1 -1 -0 -0 -0 -0 -1 -0 -0 -0 -0 -0 -0 -1 -6 -2 -1 -7 -7 -1 -1 -1 -2 -0 -0 -1 -2 -3 -5 -1 -3 -2 -1 -0 -2 -1 -0 -57 -25 -0 -0 -0 -0 -0 -0 -0 -0 -0 -1 -0 -0 -1
-3 -2 -7 -4 -9 -0 -0 -0 -1 -0 -0 -7 -0 -1 -1 -1 -0 -1 -13 -0 -0 -0 -1 -1 -1 -1 -3 -2 -1 -8 -0 -0 -1 -1 -0 -2 -8 -6 -115 -40 -27 -0 -3 -3 -0 -0 -0 -0 -2 -3 -2 -4 -16 -15
-5 -3 -2 -0 -0 -0 -0 -0 -0 -1 -3 -2 -1 -1 -0 -1 -0 -0 -0 -0 -0 -0 -1 -1 -0 -2 -2 -1 -8 -8 -14 -6 -1 -5 -3 -0 -0 -1 -50 -30 -3 -4 -3 -3 -2 -0 -2 -3 -4 -2 -2 -1 -1 -1
-0 -0 -0 -0 -0 -0 -1 -0 -11 -7 -6 -1 -2 -0 -12 -0 -1 -0 -1 -0 -0 -0 -1 -0 -0 -0 -0 -0 -2 -3 -2 -0 -0 -2 -4 -4 -38 -38 -1 -4 -13 -35 -0 -0 -1 -2 -2 -3 -1 -3 -2 -0 -0 -0
-0 -0 -0 -0 -0 -5 -8 -1 -0 -1 -1 -3 -2 -2 -0 -1 -0 -0 -1 -1 -4 -4 -6 -1 -2 -0 -1 -4 -0 -0 -0 -1 -0 -1 -1 -1 -7 -9 -5 -14 -0 -0 -0 -0 -0 -0 -0 -0 -0 -0 -0 -0 -0 -0
-0 -0 -1 -3 -0 -0 -0 -1 -0 -2 -0 -0 -3 -9 -2 -0 -0 -0 -2 -2 -5 -4 -2 -3 -1 -1 -2 -2 -1 -1 -2 -2 -1 -0 -1 -0 -2 -88 -9 -0 -0 -0 -0 -0 -0 -0 -0 -0 -0 -0 -0 -0 -0 -0
-0 -0 -0 -0 -0 -0 -0 -0 -6 -4 -0 -1 -0 -0 -0 -1 -0 -0 -0 -4 -1 -6 -1 -5 -0 -0 -1 -1 -1 -2 -1 -0 -1 -1 -0 -0 -54 -0 -0 -0 -0 -0 -0 -0 -0 -0 -0 -0 -0 -0 -0 -0 -0 -0
-0 -0 -0 -4 -2 -0 -0 -0 -0 -1 -0 -0 -0 -0 -0 -4 -19 -10 -23 -3 -1 -3 -0 -0 -0 -0 -0 -2 -0 -1 -3 -0 -1 -0 -4 -27 -0 -0 -0 -0 -0 -0 -0 -0 -0 -0 -0 -0 -0 -0 -0 -0 -0 -0
-0 -0 -0 -0 -2 -6 -0 -9 -2 -1 -0 -0 -0 -0 -0 -0 -0 -0 -0 -0 -0 -0 -0 -0 -0 -0 -0 -0 -0 -0 -1 -1 -5 -3 -2 -23 -0 -0 -0 -0 -0 -0 -0 -0 -0 -0 -0 -0 -0 -0 -0 -0 -0 -0
-0 -1 -0 -0 -0 -6 -4 -1 -3 -0 -0 -0 -1 -0 -0 -0 -0 -0 -0 -0 -0 -0 -0 -0 -1 -8 -6 -1 -1 -2 -2 -2 -7 -1 -2 -0 -0 -0 -0 -0 -0 -0 -0 -0 -0 -0 -0 -0 -0 -0 -0 -0 -0 -0
-0 -2 -0 -0 -0 -1 -0 -1 -1 -2 -0 -1 -1 -0 -0 -0 -0 -0 -0 -0 -0 -0 -0 -1 -0 -2 -4 -0 -0 -7 -7 -0 -0 -0 -0 -0 -0 -0 -0 -0 -0 -0 -0 -0 -0 -0 -0 -0 -0 -0 -0 -0 -0 -0
-0 -0 -0 -1 -2 -4 -4 -0 -0 -1 -2 -3 -1 -5 -0 -0 -0 -0 -1 -0 -0 -1 -0 -0 -5 -1 -2 -6 -0 -0 -0 -0 -0 -0 -0 -0 -0 -0 -0 -0 -0 -0 -0 -0 -0 -0 -0 -0 -0 -0 -0 -0 -0 -0
-0 -0 -0 -0 -1 -3 -6 -0 -0 -2 -1 -0 -0 -0 -0 -1 -0 -0 -0 -0 -0 -0 -0 -1 -2 -0 -0 -0 -0 -0 -0 -0 -0 -0 -0 -0 -0 -0 -0 -0 -0 -0 -0 -0 -0 -0 -0 -0 -0 -1 -0 -0 -0 -0
-0 -2 -0 -0 -0 -0 -1 -2 -1 -1 -1 -1 -2 -0 -0 -0 -0 -0 -0 -0 -0 -0 -0 -0 -0 -0 -1 -0 -0 -0 -0 -0 -0 -0 -0 -0 -0 -0 -0 -0 -0 -0 -0 -0 -0 -0 -0 -0 -0 -0 -0 -0 -0 -1
-1 -0 -2 -2 -1 -1 -1 -1 -1 -1 -1 -1 -0 -0 -0 -0 -0 -0 -0 -0 -0 -0 -0 -0 -0 -0 -0 -0 -0 -0 -0 -0 -0 -0 -0 -0 -0 -0 -0 -0 -0 -0 -0 -0 -0 -0 -0 -0 -1 -1 -0 -0 -0 -0
-0 -0 -1 -1 -3 -0 -0 -0 -0 -1 -2 -1 -1 -1 -1 -1 -0 -0 -0 -0 -0 -0 -0 -0 -0 -0 -0 -0 -0 -0 -0 -0 -0 -0 -0 -0 -0 -0 -0 -0 -0 -0 -0 -0 -0 -0 -0 -0 -0 -1 -1 -0 -2 -1
-0 -0 -0 -0 -0 -0 -0 -1 -1 -0 -1 -1 -0 -2 -0 -1 -1 -0 -1 -0 -1 -0 -0 -0 -0 -0 -0 -0 -0 -0 -0 -0 -0 -0 -0 -0 -0 -0 -0 -0 -0 -0 -0 -1 -1 -0 -0 -0 -0 -0 -0 -0 -0 -0
-0 -0 -0 -0 -0 -0 -0 -0 -0 -1 -0 -2 -1 -0 -3 -1 -0 -4 -0 -0 -0 -1 -1 -0 -0 -1 -1 -0 -0 -0 -0 -0 -0 -0 -0 -0 -0 -0 -0 -0 -0 -0 -0 -0 -0 -0 -0 -0 -0 -0 -0 -0 -0 -0
-0 -0 -0 -0 -0 -0 -0 -0 -0 -0 -0 -0 -1 -1 -0 -1 -0 -0 -0 -0 -0 -1 -0 -0 -1 -1 -1 -0 -0 -0 -0 -0 -0 -0 -0 -0 -0 -0 -0 -0 -0 -0 -0 -0 -1 -0 -0 -0 -0 -0 -0 -0 -0 -0
-0 -0 -0 -0 -0 -0 -0 -0 -0 -0 -1 -0 -1 -1 -0 -0 -2 -0 -1 -0 -0 -0 -1 -1 -1 -1 -0 -0 -1 -1 -1 -0 -0 -0 -0 -0 -0 -0 -0 -0 -0 -0 -0 -0 -0 -0 -0 -0 -0 -0 -0 -0 -0 -0
-0 -0 -0 -0 -0 -0 -0 -0 -1 -1 -0 -0 -0 -1 -0 -0 -0 -1 -1 -0 -1 -1 -1 -2 -1 -1 -1 -0 -1 -1 -1 -0 -0 -0 -0 -0 -0 -0 -0 -0 -0 -0 -0 -0 -0 -0 -0 -0 -0 -0 -0 -0 -0 -0
-0 -0 -0 -0 -0 -0 -0 -0 -0 -0 -1 -1 -1 -2 -2 -0 -0 -0 -0 -0 -1 -1 -0 -1 -0 -1 -1 -1 -1 -1 -1 -1 -0 -0 -0 -0 -0 -0 -0 -0 -0 -0 -0 -0 -0 -0 -0 -0 -0 -0 -0 -0 -0 -1
-0 -0 -0 -0 -0 -0 -1 -0 -1 -0 -0 -0 -0 -0 -1 -0 -0 -0 -0 -1 -1 -1 -1 -1 -1 -1 -0 -0 -0 -1 -0 -1 -0 -0 -0 -0 -0 -0 -1 -1 -1 -1 -0 -0 -0 -0 -0 -0 -0 -0 -0 -0 -0 -0
-0 -0 -0 -0 -0 -0 -0 -0 -0 -0 -0 -0 -0 -0 -1 -1 -0 -1 -0 -0 -0 -1 -1 -1 -0 -1 -1 -0 -0 -0 -0 -0 -0 -1 -0 -1 -1 -1 -1 -0 -0 -0 -0 -0 -0 -0 -0 -0 -0 -0 -0 -0 -0 -0
-0 -0 -0 -0 -0 -0 -0 -0 -0 -0 -0 -0 -1 -0 -1 -1 -0 -1 -0 -0 -1 -0 -0 -0 -1 -1 -0 -1 -0 -0 -0 -1 -1 -1 -1 -1 -1 -0 -1 -0 -1 -0 -0 -0 -0 -0 -0 -0 -0 -0 -0 -0 -0 -0
-0 -0 -0 -0 -0 -0 -0 -0 -0 -0 -0 -0 -0 -0 -0 -0 -0 -0 -0 -0 -0 -1 -1 -1 -1 -0 -0 -0 -0 -0 -0 -0 -0 -0 -0 -0 -0 -0 -1 -0 -1 -1 -0 -0 -0 -0 -0 -0 -0 -0 -0 -0 -0 -0
Wind_Speed
10 7 6 6 6 6 4 3 1 1 1 2 3 5 6 6 8 11 14 16 18 21 22 20 23 25 23 22 22 21 22 20 20 21 21 21 22 20 22 21 22 20 20 21 20 22 29 21 21 24 28 30 32 37
7 8 9 8 6 7 6 5 5 3 3 2 2 5 9 8 11 14 16 15 18 24 25 23 26 29 30 30 28 23 23 23 17 18 19 20 22 23 20 24 21 24 16 28 28 25 21 23 24 24 28 32 32 34
10 11 11 11 10 8 7 4 4 3 1 4 4 7 9 11 12 14 18 17 18 23 30 28 29 27 26 28 25 26 27 26 27 25 25 25 25 26 26 25 29 25 30 35 31 26 30 30 28 30 31 34 34 34
12 12 10 9 7 5 4 3 2 1 2 3 6 9 12 14 16 15 19 18 22 24 28 28 23 25 23 24 28 32 39 37 36 30 28 27 29 26 30 31 32 35 25 27 33 30 36 24 24 29 28 30 33 34
6 8 7 7 6 6 5 4 3 2 2 3 4 7 9 11 13 16 22 22 22 24 28 29 31 35 36 34 32 29 26 30 33 30 28 28 29 31 34 40 42 39 41 31 36 31 37 30 31 32 32 34 35 34
10 12 11 9 9 7 6 5 4 4 2 1 5 7 9 11 11 15 22 18 17 20 24 26 26 32 34 31 28 22 24 18 16 20 25 29 37 33 31 42 39 34 29 22 42 41 41 40 36 19 35 33 37 36
4 7 10 9 7 4 4 6 6 4 4 1 2 5 6 7 11 17 20 18 14 15 22 26 24 19 21 22 21 19 24 20 23 25 27 35 34 26 37 49 44 44 42 38 26 39 40 14 15 26 26 28 28 31
7 9 8 6 4 4 5 4 3 3 3 2 3 5 7 7 15 20 17 16 13 20 22 23 25 28 22 21 22 18 18 18 22 23 26 32 33 26 35 38 41 40 38 35 22 11 16 16 16 17 24 29 28 26
4 5 6 6 6 7 7 5 4 4 2 0 2 4 9 13 18 16 12 13 20 22 22 21 26 28 17 24 23 18 18 20 20 24 28 25 24 26 32 37 33 34 34 35 33 23 17 19 23 18 22 26 27 28
2 2 3 2 3 2 2 3 4 4 5 3 3 12 17 12 10 11 18 21 20 20 23 32 32 31 24 22 21 21 17 20 16 16 17 25 39 32 38 42 41 39 36 33 31 28 23 21 20 22 21 22 25 27
1 2 3 4 4 4 4 4 5 3 3 9 11 13 14 10 10 16 18 17 18 24 26 34 39 39 34 34 30 22 23 21 20 18 18 22 28 28 30 28 23 24 26 28 30 25 22 23 22 19 20 23 27 27
12 6 4 4 3 2 5 7 6 5 9 10 12 11 10 9 8 8 12 8 10 23 24 28 30 32 29 27 27 26 22 19 23 19 21 25 27 24 22 19 22 22 23 23 25 20 20 21 22 22 23 25 25 25
30 28 28 27 26 26 27 28 16 14 9 18 22 23 22 22 21 20 21 19 20 21 21 23 23 22 21 24 25 23 22 25 22 22 25 26 22 22 23 22 19 19 21 22 20 19 20 20 20 18 18 19 18 17
30 30 29 29 30 31 33 34 33 28 22 25 25 23 23 20 20 21 22 21 19 19 21 22 24 25 26 23 23 24 24 22 24 25 27 20 21 23 22 19 17 20 21 19 19 16 16 16 16 16 16 16 15 15
31 30 30 29 30 31 33 34 33 28 23 22 22 20 21 20 19 16 17 18 17 16 17 21 23 23 21 21 20 23 23 23 19 19 20 19 20 18 15 17 18 19 18 17 15 15 14 14 14 14 15 15 15 15
31 30 28 30 30 31 32 32 29 24 21 21 21 19 17 15 17 17 18 19 18 18 18 18 18 19 22 21 21 21 21 21 22 22 20 20 18 16 16 16 20 19 17 15 14 13 13 13 13 14 15 15 16 16
29 25 27 27 27 27 28 25 23 22 21 21 21 20 19 20 19 20 21 22 20 18 21 20 20 22 19 21 20 19 25 30 29 27 25 24 19 16 16 16 16 15 14 12 12 12 12 12 13 14 14 15 16 16
25 23 23 23 22 18 17 14 23 22 22 22 24 24 20 22 26 25 22 18 19 20 24 24 24 24 24 25 30 29 26 27 27 28 28 24 22 19 16 15 15 11 10 10 11 11 11 12 13 14 14 15 15 16
19 21 20 21 18 7 9 4 9 24 24 26 26 26 26 26 24 25 24 23 21 22 25 26 27 28 31 27 28 31 32 32 35 33 27 22 21 19 18 15 11 9 8 9 11 12 13 14 14 14 15 15 16 17
12 9 9 15 6 4 5 10 7 21 26 25 23 26 26 26 25 24 23 22 22 21 22 25 27 26 28 31 33 35 36 36 34 32 24 20 19 20 18 13 10 7 8 8 11 12 13 14 14 14 15 15 16 17
18 14 12 7 3 15 13 11 11 14 18 20 20 19 24 21 24 23 23 18 21 22 23 23 26 28 29 30 30 30 30 28 26 23 21 18 17 18 14 10 8 7 8 9 11 12 13 13 14 14 15 16 17 18
15 16 13 13 12 9 7 5 6 17 15 17 18 20 21 22 22 21 19 18 19 21 22 26 28 29 30 30 30 29 28 26 23 21 17 15 15 13 11 10 9 10 10 11 12 12 13 14 15 15 16 16 17 18
16 15 13 12 10 9 7 6 6 5 4 5 6 5 8 12 17 18 19 19 19 21 23 25 27 27 27 27 27 27 26 25 21 19 17 15 13 12 11 12 12 12 12 13 12 12 13 14 15 15 16 16 17 19
16 15 13 12 11 9 9 9 8 7 7 6 6 6 7 9 12 8 10 16 20 22 24 27 27 27 25 25 25 25 25 23 20 20 19 16 15 15 14 14 14 15 14 13 13 14 15 15 15 16 17 18 19 21
15 15 13 13 12 11 10 9 9 9 9 10 10 10 11 9 8 9 11 14 17 21 25 26 27 27 27 27 25 24 24 23 22 20 20 18 17 16 16 16 17 17 16 14 14 15 16 15 16 17 18 19 20 21
16 14 14 13 12 11 11 11 11 10 9 10 11 13 12 11 11 13 14 16 18 20 23 25 26 27 26 26 27 26 26 25 24 21 21 22 22 22 20 18 17 17 17 16 15 15 16 16 16 17 18 20 21 21
16 15 14 13 11 11 11 11 10 10 11 11 12 12 12 12 14 15 14 17 17 20 23 24 25 26 26 26 25 25 24 23 22 21 20 20 20 20 19 18 17 17 16 17 17 17 16 16 17 17 18 20 21 22
16 15 15 14 14 13 13 12 12 13 12 13 11 12 12 14 16 16 16 16 17 19 20 21 23 24 25 25 25 25 23 21 19 18 17 18 18 18 17 16 15 15 16 17 17 17 16 16 16 17 18 19 20 21
17 15 15 15 14 14 13 13 13 13 12 11 10 9 12 15 15 16 17 17 16 16 18 20 18 21 20 21 22 23 24 24 25 25 24 22 20 19 17 17 16 16 16 16 16 16 16 16 17 17 17 18 19 20
17 16 16 16 15 15 14 13 12 12 10 9 9 9 10 13 16 16 17 17 17 17 17 18 20 21 22 23 21 21 22 23 23 24 26 24 20 18 18 18 18 17 16 16 16 16 15 15 15 16 16 17 18 19
16 16 16 16 16 15 13 12 11 12 11 11 11 10 11 15 16 17 17 18 17 17 17 17 19 20 21 22 23 22 19 21 21 21 20 19 19 18 18 18 18 17 16 16 16 15 14 14 15 15 16 17 18 19
16 17 18 18 17 16 15 14 14 14 14 14 13 13 13 14 16 18 19 18 18 18 18 17 17 17 18 19 19 19 19 20 20 20 19 17 17 16 16 15 15 14 13 13 12 12 12 13 14 15 15 16 17 18
16 16 16 18 18 18 17 17 16 16 15 15 15 15 15 16 17 20 19 19 19 18 17 16 16 15 15 16 17 18 17 17 17 17 16 16 16 16 15 14 13 12 11 11 12 12 12 13 13 14 15 15 16 17
Wind_Direction
194 192 200 214 217 216 214 222 246 17 3 356 351 345 334 331 315 303 302 293 283 286 285 288 285 284 288 291 293 301 300 293 290 288 292 295 298 300 303 301 299 300 299 300 306 299 298 324 319 314 316 318 317 301
170 146 137 132 138 137 127 120 112 76 30 20 354 319 305 311 295 289 294 300 290 281 283 290 284 281 281 283 288 290 288 296 308 303 300 304 303 302 306 304 312 294 286 299 290 297 316 319 316 319 315 311 311 301
138 135 135 134 132 125 132 129 118 88 327 303 311 298 298 297 290 287 294 299 294 292 289 285 285 287 284 281 282 281 280 282 283 289 294 291 296 290 297 304 305 306 288 276 291 302 301 308 315 309 304 299 297 300
142 143 146 143 143 156 179 165 176 237 293 305 298 295 292 288 288 289 292 296 293 297 292 291 294 289 290 284 276 270 258 263 270 277 287 284 285 299 297 299 302 286 299 295 288 296 288 318 322 313 315 300 288 285
198 199 184 168 199 224 231 228 206 217 288 320 324 317 315 311 306 301 290 292 291 291 291 290 283 275 270 270 272 274 277 276 275 281 282 283 289 293 293 278 260 273 263 287 284 294 274 306 316 311 310 294 276 278
236 243 242 240 242 237 201 207 212 177 152 312 318 323 319 316 319 310 295 302 302 293 294 294 289 282 276 275 278 279 276 281 276 285 290 284 269 282 289 266 262 274 292 227 268 264 270 276 271 321 303 303 284 281
210 233 246 246 254 222 231 257 246 252 199 276 326 329 333 338 310 298 301 315 326 309 299 298 300 304 299 293 288 285 276 286 284 280 278 274 271 283 279 256 266 271 264 254 239 271 262 296 304 316 312 309 306 293
253 253 247 233 213 229 242 231 250 257 276 286 304 327 329 340 306 298 308 321 326 308 298 299 295 292 298 291 287 294 289 281 283 284 284 275 277 280 277 275 283 283 281 287 271 266 250 312 312 314 313 307 303 303
247 251 254 252 252 258 261 255 192 171 166 107 319 331 326 306 300 309 335 322 302 296 296 293 285 283 302 286 285 296 294 286 289 284 281 287 282 279 282 282 288 290 293 295 300 309 315 313 312 312 315 305 299 297
228 249 251 244 246 258 254 221 234 244 263 263 289 295 294 310 333 340 316 303 297 291 283 266 263 260 278 281 278 285 290 291 302 302 299 288 268 233 246 269 279 284 294 302 307 305 306 307 309 306 307 306 304 303
330 300 296 287 260 236 236 238 253 249 259 265 286 291 309 335 324 313 306 301 296 287 277 259 237 240 248 245 253 275 280 287 291 291 303 296 281 291 292 292 305 307 312 312 316 313 312 310 309 311 308 304 300 301
93 65 30 16 10 243 233 233 221 163 269 280 293 310 325 205 178 169 179 199 220 265 268 253 251 242 248 247 248 249 277 289 278 299 302 297 284 308 316 318 318 317 318 321 326 323 317 313 311 308 306 304 301 300
144 144 145 147 140 149 171 195 217 241 258 239 212 196 180 178 185 177 183 187 194 201 233 246 257 254 253 244 250 270 284 269 286 292 296 288 313 328 329 327 325 328 326 325 324 319 309 313 313 325 321 313 310 315
152 153 152 150 151 155 159 164 177 188 198 182 176 183 180 178 191 195 208 212 212 196 204 248 235 227 230 247 263 266 271 284 284 289 271 321 331 337 338 340 334 329 325 319 309 326 322 324 327 334 336 331 340 339
150 153 154 157 157 158 159 160 163 169 177 183 182 190 191 200 203 204 223 218 197 189 199 211 225 239 256 268 276 270 272 286 311 305 312 334 346 355 9 351 338 327 330 323 319 327 339 343 348 344 340 345 349 351
150 155 162 156 156 153 152 154 168 182 187 187 188 196 200 220 217 203 218 232 235 229 238 256 266 264 264 276 275 280 290 293 306 314 318 338 349 360 360 355 331 319 320 322 329 337 346 356 354 353 353 353 353 353
145 163 151 146 144 140 139 147 168 180 195 206 214 202 212 235 227 251 274 253 284 291 263 271 270 267 287 283 290 297 291 287 301 308 319 326 333 341 350 348 346 334 322 329 333 336 343 350 354 352 350 352 356 358
159 146 144 144 137 120 131 123 206 208 204 206 228 237 219 241 273 287 311 323 315 302 284 281 288 285 288 290 286 295 307 313 314 314 317 322 323 325 331 336 335 343 335 334 340 346 348 348 346 347 353 356 357 357
152 176 164 152 135 79 338 17 312 273 264 278 286 292 293 298 308 306 309 308 310 307 297 293 289 289 285 298 302 302 305 310 310 314 316 323 319 313 314 317 338 340 341 336 333 330 336 339 341 343 345 348 349 352
66 26 43 125 123 46 18 344 352 297 291 300 308 306 305 304 307 310 310 308 307 306 299 294 294 300 302 304 307 306 308 311 311 310 314 315 311 298 297 307 321 350 351 346 338 337 338 341 344 345 346 348 350 347
118 86 83 62 320 303 341 350 340 333 329 321 324 324 313 319 313 312 310 314 305 301 302 306 307 310 313 315 317 317 317 320 321 321 322 321 308 286 297 309 328 346 348 344 344 342 340 338 343 345 346 346 348 351
116 121 104 129 149 135 147 20 10 333 335 331 327 322 321 318 317 318 322 310 308 312 313 311 311 311 312 314 315 314 309 310 315 321 334 325 300 302 307 308 312 321 336 339 337 339 340 338 339 341 344 350 355 355
119 129 124 123 131 127 122 83 133 114 109 77 25 35 8 353 338 333 325 319 318 321 319 319 316 316 317 317 316 315 309 307 311 313 317 319 322 328 325 319 321 323 328 334 337 336 333 336 337 341 346 348 349 350
107 108 110 108 112 106 95 85 94 80 68 69 64 49 38 23 4 -0 346 331 324 322 319 316 316 316 318 320 318 317 314 311 309 309 309 311 314 317 319 318 322 322 324 329 330 329 329 331 335 338 341 339 341 342
108 105 108 100 97 93 87 81 75 65 53 39 30 27 29 33 25 18 8 354 343 333 325 320 316 314 312 312 314 315 317 314 309 306 308 309 310 313 315 317 317 319 320 321 321 322 324 331 331 333 335 338 339 340
82 94 89 88 91 89 84 74 68 63 55 48 39 26 26 23 18 13 11 4 355 346 338 331 324 319 316 313 308 308 308 310 308 309 309 308 305 302 303 305 308 313 319 321 321 321 324 327 330 334 337 338 337 339
71 74 83 88 93 87 80 79 74 68 58 53 44 37 34 30 20 18 22 14 5 353 342 335 330 325 321 318 316 313 312 313 309 308 313 315 316 316 312 307 308 312 318 319 320 320 322 325 327 331 334 337 338 339
70 70 59 61 68 73 67 66 65 60 61 53 49 44 38 29 18 17 13 7 359 352 344 336 330 325 322 319 317 315 315 315 317 319 322 323 322 320 321 325 327 326 323 323 324 326 328 328 330 333 335 337 340 343
56 62 59 55 58 60 62 60 59 59 60 51 42 35 30 23 15 8 7 6 6 4 358 349 345 337 331 327 321 316 311 308 303 299 299 300 305 310 318 320 321 325 327 329 331 331 333 334 334 336 339 342 345 348
47 53 47 49 49 50 53 59 52 49 49 44 39 32 27 26 23 23 20 19 18 15 10 2 353 345 335 328 325 324 321 315 308 300 295 299 303 309 311 312 314 320 323 325 326 331 339 342 345 344 345 347 349 351
47 50 45 45 42 48 50 47 45 43 44 47 50 46 38 29 28 29 28 26 26 22 17 11 4 355 344 335 325 319 323 322 318 316 313 310 307 306 307 310 313 316 319 321 323 327 333 338 342 346 347 349 351 353
40 38 35 34 35 42 42 42 38 37 41 42 45 47 44 38 32 30 29 28 26 24 22 21 19 15 8 354 341 334 324 319 315 315 319 319 317 316 317 320 322 325 329 333 339 344 347 348 350 353 355 357 358 360
34 37 37 31 30 33 36 30 34 36 38 39 42 40 40 35 31 27 29 30 28 28 29 33 36 38 35 25 6 348 337 329 319 321 329 327 318 315 319 324 329 337 344 349 352 355 357 1 2 4 5 7 9 10